TimeEEST,TemperatureF,Dew PointF,Humidity,Sea Level PressureIn,VisibilityMPH,Wind Direction,Wind SpeedMPH,Gust SpeedMPH,PrecipitationIn,Events,Conditions,WindDirDegrees,DateUTC
12:20 AM,69.8,57.2,64,30.04,6.2,WNW,4.6,-,N/A,,Partly Cloudy,300,2013-09-07 21:20:00
12:50 AM,69.8,57.2,64,30.04,6.2,West,5.8,-,N/A,,Partly Cloudy,270,2013-09-07 21:50:00
1:20 AM,68.0,55.4,64,30.04,6.2,West,4.6,-,N/A,,Partly Cloudy,280,2013-09-07 22:20:00
1:50 AM,62.6,55.4,77,30.04,6.2,Variable,1.2,-,N/A,,Partly Cloudy,0,2013-09-07 22:50:00
2:20 AM,64.4,57.2,77,30.04,6.2,North,1.2,-,N/A,,Partly Cloudy,350,2013-09-07 23:20:00
2:50 AM,64.4,57.2,77,30.04,6.2,WNW,2.3,-,N/A,,Partly Cloudy,300,2013-09-07 23:50:00
3:20 AM,64.4,55.4,73,30.04,6.2,West,5.8,-,N/A,,Partly Cloudy,280,2013-09-08 00:20:00
3:50 AM,62.6,53.6,72,30.04,6.2,West,4.6,-,N/A,,Partly Cloudy,280,2013-09-08 00:50:00
4:20 AM,60.8,55.4,82,30.04,6.2,Variable,3.5,-,N/A,,Partly Cloudy,0,2013-09-08 01:20:00
4:45 AM,66.2,57.2,73,30.04,6.2,Variable,3.5,-,N/A,,Partly Cloudy,0,2013-09-08 01:45:00
5:20 AM,69.8,55.4,60,30.04,6.2,NNE,4.6,-,N/A,,Partly Cloudy,30,2013-09-08 02:20:00
5:50 AM,69.8,55.4,60,30.04,6.2,Variable,1.2,-,N/A,,Partly Cloudy,0,2013-09-08 02:50:00
6:20 AM,66.2,55.4,68,30.04,6.2,Variable,3.5,-,N/A,,Partly Cloudy,0,2013-09-08 03:20:00
6:50 AM,64.4,53.6,68,30.04,6.2,SSW,2.3,-,N/A,,Partly Cloudy,210,2013-09-08 03:50:00
7:20 AM,62.6,55.4,77,30.06,-9999.0,NW,4.6,-,N/A,,Clear,310,2013-09-08 04:20:00
7:50 AM,64.4,55.4,73,30.06,-9999.0,WSW,3.5,-,N/A,,Clear,240,2013-09-08 04:50:00
8:20 AM,68.0,57.2,68,30.06,-9999.0,Variable,3.5,-,N/A,,Clear,0,2013-09-08 05:20:00
8:50 AM,75.2,57.2,53,30.06,-9999.0,Variable,1.2,-,N/A,,Clear,0,2013-09-08 05:50:00
9:20 AM,78.8,55.4,44,30.06,-9999.0,Variable,2.3,-,N/A,,Clear,0,2013-09-08 06:20:00
9:50 AM,80.6,55.4,42,30.06,-9999.0,North,9.2,-,N/A,,Clear,10,2013-09-08 06:50:00
10:20 AM,80.6,55.4,42,30.09,-9999.0,NNE,12.7,-,N/A,,Clear,30,2013-09-08 07:20:00
10:50 AM,82.4,55.4,39,30.09,-9999.0,NNE,12.7,-,N/A,,Clear,20,2013-09-08 07:50:00
11:20 AM,82.4,53.6,37,30.09,-9999.0,NE,13.8,-,N/A,,Clear,40,2013-09-08 08:20:00
11:50 AM,84.2,53.6,35,30.09,-9999.0,North,11.5,-,N/A,,Clear,10,2013-09-08 08:50:00
12:20 PM,84.2,53.6,35,30.09,6.2,NNE,13.8,-,N/A,,Partly Cloudy,20,2013-09-08 09:20:00
12:50 PM,84.2,53.6,35,30.09,6.2,NNE,15.0,-,N/A,,Partly Cloudy,30,2013-09-08 09:50:00
1:20 PM,82.4,59.0,45,30.09,6.2,NE,19.6,-,N/A,,Partly Cloudy,50,2013-09-08 10:20:00
1:50 PM,82.4,59.0,45,30.09,6.2,NE,19.6,-,N/A,,Partly Cloudy,50,2013-09-08 10:50:00
2:20 PM,82.4,57.2,42,30.06,6.2,NE,18.4,-,N/A,,Partly Cloudy,50,2013-09-08 11:20:00
2:50 PM,82.4,59.0,45,30.06,6.2,NE,19.6,-,N/A,,Partly Cloudy,50,2013-09-08 11:50:00
3:20 PM,82.4,57.2,42,30.06,6.2,NE,19.6,-,N/A,,Partly Cloudy,50,2013-09-08 12:20:00
3:50 PM,82.4,57.2,42,30.06,-9999.0,ENE,19.6,-,N/A,,Clear,60,2013-09-08 12:50:00
4:20 PM,82.4,51.8,35,30.06,6.2,NE,18.4,-,N/A,,Partly Cloudy,40,2013-09-08 13:20:00
4:50 PM,82.4,53.6,37,30.06,6.2,NE,18.4,-,N/A,,Partly Cloudy,40,2013-09-08 13:50:00
5:20 PM,80.6,55.4,42,30.06,6.2,NE,18.4,-,N/A,,Partly Cloudy,40,2013-09-08 14:20:00
5:50 PM,80.6,51.8,37,30.06,-9999.0,NE,18.4,-,N/A,,Clear,50,2013-09-08 14:50:00
6:20 PM,80.6,51.8,37,30.06,-9999.0,ENE,15.0,-,N/A,,Clear,60,2013-09-08 15:20:00
6:50 PM,78.8,51.8,39,30.06,-9999.0,NE,12.7,-,N/A,,Clear,50,2013-09-08 15:50:00
7:20 PM,78.8,50.0,36,30.06,-9999.0,NE,15.0,-,N/A,,Clear,40,2013-09-08 16:20:00
7:50 PM,75.2,50.0,41,30.09,6.2,NNE,13.8,-,N/A,,Partly Cloudy,30,2013-09-08 16:50:00
8:20 PM,73.4,48.2,41,30.09,6.2,NNE,5.8,-,N/A,,Partly Cloudy,20,2013-09-08 17:20:00
8:50 PM,73.4,48.2,41,30.09,6.2,NNE,6.9,-,N/A,,Partly Cloudy,20,2013-09-08 17:50:00
9:20 PM,73.4,48.2,41,30.12,6.2,North,5.8,-,N/A,,Partly Cloudy,350,2013-09-08 18:20:00
9:50 PM,71.6,48.2,43,30.12,6.2,Variable,2.3,-,N/A,,Partly Cloudy,0,2013-09-08 18:50:00
10:20 PM,69.8,48.2,46,30.12,-9999.0,Variable,2.3,-,N/A,,Clear,0,2013-09-08 19:20:00
10:50 PM,69.8,46.4,43,30.12,-9999.0,Variable,2.3,-,N/A,,Clear,0,2013-09-08 19:50:00
11:20 PM,69.8,48.2,46,30.12,-9999.0,NNW,5.8,-,N/A,,Clear,340,2013-09-08 20:20:00
11:50 PM,71.6,48.2,43,30.12,-9999.0,NNW,4.6,-,N/A,,Clear,330,2013-09-08 20:50:00